Regional Weather Roundup
Issued by NWS Sioux Falls, SD

Home | Current Version | Previous Version | Text Only | Print | Product List | Glossary Off
Versions: 1 2 3 4 5 6 7 8 9 10 11 12 13 14 15 16 17 18 19 20 21 22 23 24 25 26 27 28 29 30 31 32 33 34 35 36 37 38 39 40 41 42 43 44 45 46 47 48 49 50

000
ASUS43 KFSD 012202
RWRFSD

WEATHER ROUNDUP FOR SE SOUTH DAKOTA/SW MINNESOTA/NW IOWA
NATIONAL WEATHER SERVICE SIOUX FALLS SD
500 PM CDT WED APR 01 2015

NOTE: "FAIR" INDICATES FEW OR NO CLOUDS BELOW 12,000 FEET WITH NO
SIGNIFICANT WEATHER AND OR OBSTRUCTIONS TO VISIBILITY.


SDZ038>040-050-052>070-012300-
SOUTHEAST SOUTH DAKOTA

CITY           SKY/WX    TMP DP  RH WIND       PRES   REMARKS
BROOKINGS      CLOUDY    68  34  28 NW17G23   29.53R
CHAMBERLAIN    NOT AVBL
HURON          CLOUDY    71  40  32 NW23G33   29.57R
MADISON        FAIR      68  34  28 NW24      29.54R
MITCHELL       CLOUDY    69  40  34 NW16      29.58R
SIOUX FALLS    CLOUDY    76  34  21 W16G26    29.50R
WINNER         FAIR      69  32  25 N26G33    29.65R
YANKTON        CLOUDY    75  37  25 NW20      29.52R
$$

MNZ071-072-080-081-089-090-097-098-012300-
SOUTHWEST MINNESOTA

CITY           SKY/WX    TMP DP  RH WIND       PRES   REMARKS
FAIRMONT       PTSUNNY   81  39  22 S31G37    29.53F
JACKSON        PTSUNNY   81  34  18 S26G35    29.53F
LUVERNE        PTSUNNY   81  34  18 NW25G39   29.50R
MARSHALL       CLOUDY    81  43  26 W35       29.46R
MONTEVIDEO     CLOUDY    77  43  29 NW16G22   29.46R
PIPESTONE      CLOUDY    75  30  19 NW15G28   29.51R
REDWOOD FALLS  PTSUNNY   81  43  26 SW25G41   29.44S
TRACY          PTSUNNY   82  44  26 SW26G39   29.47S
WINDOM         PTSUNNY   81  37  21 S28G38    29.49F
WORTHINGTON    PTSUNNY   81  45  28 S28G39    29.51F
$$

IAZ001>003-012>014-020>022-031-032-NEZ013-014-SDZ071-012300-
NORTHWEST IOWA

CITY           SKY/WX    TMP DP  RH WIND       PRES   REMARKS
ESTHERVILLE    PTSUNNY   81  43  26 S32G45    29.52F
SIOUX CITY     MOSUNNY   84  43  23 S28G39    29.53F
SPENCER        MOSUNNY   82  45  27 S26G39    29.53F
$$

ABBREVIATIONS USED IN REMARKS
   TC - TEMPERATURE IN CELSIUS
  WCI - WIND CHILL INDEX
   HX - HEAT INDEX
  VSB - VISIBILITY




USA.gov is the U.S. government's official web portal to all federal, state and local government web resources and services.